Miscellaneous Local Product
Issued by NWS Hastings, NE

Home | Current Version | Previous Version | Graphics & Text | Print | Product List | Glossary On
Versions: 1 2 3 4 5 6 7 8 9 10 11 12 13 14 15 16 17 18 19 20 21 22 23 24 25 26 27 28 29 30 31 32 33 34 35 36 37 38 39 40 41 42 43 44 45 46 47 48 49 50
000
AXUS43 KGID 092202
MISGRI

GID CWA HOURLY WEATHER ROUNDUP
NATIONAL WEATHER SERVICE HASTINGS NE
500 PM CDT WED JUL 09 2014

NOTE: "FAIR" INDICATES FEW OR NO CLOUDS BELOW 12,000 FEET WITH NO
SIGNIFICANT WEATHER AND/OR OBSTRUCTIONS TO VISIBILITY.

...SOUTH CENTRAL NEBRASKA...

CITY           SKY/WX    TMP DP  RH WIND       PRES   REMARKS
GRAND ISLAND   CLOUDY    78  61  55 SE8       30.02S
HASTINGS       PTSUNNY   83  57  41 SE7       30.01F
KEARNEY        CLOUDY    84  61  45 SE14G20   30.00S
ORD            CLOUDY    68  59  73 E15       30.01F
YORK           CLOUDY    75  63  64 SE10      30.01F
AURORA         CLOUDY    77  62  59 E10       30.02S
LEXINGTON      MOSUNNY   89  56  33 S16       29.97S
HOLDREGE       MOSUNNY   86  54  32 S16       29.98R
HEBRON         PTSUNNY   86  59  39 SE3       30.00F

...NEBRASKA PANHANDLE...

CITY           SKY/WX    TMP DP  RH WIND       PRES   REMARKS
CHADRON          N/A     88  58  36 NE12G18   29.94F
ALLIANCE       SUNNY     92  49  22 W6        29.96F
SCOTTSBLUFF    SUNNY     93  58  30 E8        29.94F HX  92
SIDNEY         SUNNY     92  53  26 S10G18    29.99F

...WESTERN AND NORTH CENTRAL NEBRASKA...

CITY           SKY/WX    TMP DP  RH WIND       PRES   REMARKS
VALENTINE      PTSUNNY   72  58  61 E16G25    30.02F
AINSWORTH      CLOUDY    63  59  89 E12G22    30.04F
ONEILL         CLOUDY    65  58  80 SE7       30.05S
BROKEN BOW     CLOUDY    78  63  59 E12G28    30.00S
IMPERIAL       SUNNY     92  58  31 S18G26    29.94F HX  91
NORTH PLATTE   SUNNY     88  60  38 S10       29.94F
MCCOOK         SUNNY     90  61  37 S15G24    29.95F HX  90

...EASTERN NEBRASKA...

CITY           SKY/WX    TMP DP  RH WIND       PRES   REMARKS
NORFOLK        CLOUDY    72  56  57 SW7       30.06R
SO SIOUX CITY  MOSUNNY   82  61  48 S6        30.01S
TEKAMAH        PTSUNNY   83  58  42 VRB6      30.01F
ALBION         TSTM      67  61  80 NE9       30.08R
OMAHA EPPLEY   PTSUNNY   83  54  36 SW6       30.02F
OFFUTT AFB     PTSUNNY   82  59  46 VRB1      30.02F
MILLARD        CLOUDY    81  60  48 SE5       30.01F
LINCOLN        CLOUDY    78  60  53 S3        30.03F
NEBRASKA CITY  PTSUNNY   79  57  46 CALM      30.03F
BEATRICE       CLOUDY    79  60  51 E5        30.02F
FALLS CITY     MOSUNNY   83  60  45 E5        30.03F

...NORTHERN KANSAS...

CITY           SKY/WX    TMP DP  RH WIND       PRES   REMARKS
GOODLAND       MOSUNNY   87  61  41 S24G32    29.99F
HILL CITY      SUNNY     90  56  31 S20G28    29.97F
NORTON         CLEAR     91  48  22 SE18G24   29.95F
PHILLIPSBURG   SUNNY     90  54  29 S15G26    29.96F
SMITH CENTER   SUNNY     90  55  31 S14G23    29.98F
BELOIT         MOSUNNY   88  57  35 S13G18    29.97F
HAYS           SUNNY     88  57  35 S21G28    29.99F
RUSSELL        SUNNY     89  56  32 S18       29.98F
CONCORDIA      MOSUNNY   87  60  40 S12G18    30.00F
SALINA         SUNNY     91  59  33 S14       29.99F HX  90
TOPEKA         MOSUNNY   86  58  38 N7        30.03F



USA.gov is the U.S. government's official web portal to all federal, state and local government web resources and services.